FW7632 Weather Reports


Display with metric or nautical units.
time (UTC)temp
F
wind
direction
speed
MPH
gust
MPH
rain 1hr
in
rain 24hr
in
rain mn
in
humidity
%
barometer
mb
20260504081509 48 242 3.0 7.0 0.00 0.00 0.00 52 1009.9
20260504044556 46 286 0.0 2.0 0.00 0.00 0.00 51 1010.1
20260504043052 47 286 0.0 1.0 0.00 0.00 0.00 51 1010.1
20260504041543 48 286 0.0 2.0 0.00 0.00 0.00 53 1010.1
20260504040054 48 284 0.0 1.0 0.00 0.00 0.00 54 1010.1
20260504034538 48 285 0.0 2.0 0.00 0.00 0.00 53 1010.0
20260504033029 49 286 0.0 2.0 0.00 0.00 0.00 53 1010.1
20260504031528 50 262 0.0 1.0 0.00 0.00 0.00 53 1010.1
20260504030023 50 283 0.0 1.0 0.00 0.00 0.00 53 1010.2
20260504024516 50 283 1.0 2.0 0.00 0.00 0.00 53 1010.1
20260504023012 50 280 0.0 2.0 0.00 0.00 0.00 52 1010.4
20260504021511 51 279 1.0 2.0 0.00 0.00 0.00 53 1010.3
20260504020004 51 279 0.0 2.0 0.00 0.00 0.00 52 1010.4
20260504014608 52 271 1.0 2.0 0.00 0.00 0.00 50 1010.2
20260504013056 54 280 1.0 2.0 0.00 0.00 0.00 47 1010.2
20260504011550 54 286 0.0 4.0 0.00 0.00 0.00 44 1010.2
20260504010045 55 273 2.0 7.0 0.00 0.00 0.00 42 1009.9
20260504004541 55 276 2.0 9.0 0.00 0.00 0.00 41 1009.8
20260504003036 55 270 2.0 6.0 0.00 0.00 0.00 42 1009.8
20260504001532 55 257 2.0 7.0 0.00 0.00 0.00 42 1009.5
20260504000028 55 246 3.0 6.0 0.00 0.00 0.00 41 1009.3
20260503234526 56 222 2.0 4.0 0.00 0.00 0.00 40 1009.3
20260503233019 56 278 2.0 5.0 0.00 0.00 0.00 39 1009.2
20260503231520 56 278 3.0 6.0 0.00 0.00 0.00 39 1009.2
20260503230013 56 250 1.0 7.0 0.00 0.00 0.00 39 1009.2
20260503224507 56 263 2.0 8.0 0.00 0.00 0.00 38 1009.3
20260503223004 57 266 2.0 7.0 0.00 0.00 0.00 37 1009.3
20260503221602 58 268 3.0 9.0 0.00 0.00 0.00 36 1009.4
20260503220053 58 297 2.0 8.0 0.00 0.00 0.00 37 1009.6
20260503214559 58 349 2.0 9.0 0.00 0.00 0.00 37 1009.6
20260503213047 58 299 4.0 9.0 0.00 0.00 0.00 38 1009.7
20260503211543 57 304 5.0 13.0 0.00 0.00 0.00 38 1009.6
20260503210035 56 300 7.0 18.0 0.00 0.00 0.00 40 1009.8
20260503204533 56 254 10.0 14.0 0.00 0.00 0.00 39 1009.8
20260503203026 56 284 6.0 16.0 0.00 0.00 0.00 38 1009.7
20260503201522 56 319 9.0 23.0 0.00 0.00 0.00 36 1009.8
20260503200018 57 311 4.0 13.0 0.00 0.00 0.00 34 1009.6
20260503194513 57 296 8.0 14.0 0.00 0.00 0.00 33 1009.8
20260503193008 58 360 4.0 14.0 0.00 0.00 0.00 32 1010.0
20260503191504 59 269 9.0 15.0 0.00 0.00 0.00 30 1010.0
20260503190110 58 269 6.0 15.0 0.00 0.00 0.00 30 1010.2
20260503184556 59 265 5.0 13.0 0.00 0.00 0.00 30 1010.3
20260503183100 58 270 6.0 17.0 0.00 0.00 0.00 30 1010.5
20260503181545 59 274 5.0 13.0 0.00 0.00 0.00 30 1010.7
20260503180053 58 316 4.0 14.0 0.00 0.00 0.00 31 1010.8
20260503174537 57 313 5.0 12.0 0.00 0.00 0.00 32 1011.2
20260503173034 56 217 6.0 17.0 0.00 0.00 0.00 34 1011.5
20260503171538 54 285 6.0 20.0 0.00 0.00 0.00 35 1011.6